Weather History for KFCM - May, 2013

Change the Weather History Date:

Sunday, May 26, 2013

  Actual Average Record
Temperature  
Mean Temperature 55 °F -  
Max Temperature 57 °F 68 °F 84 °F (2014)
Min Temperature 53 °F 49 °F 41 °F (2004)
Degree Days  
Heating Degree Days 10    
Growing Degree Days 5 (Base 50)    
Moisture  
Dew Point 42 °F    
Average Humidity 61    
Maximum Humidity 69    
Minimum Humidity 47    
Precipitation  
Precipitation 0.00 in - - ()
Sea Level Pressure  
Sea Level Pressure 30.15 in    
Wind  
Wind Speed 12 mph (ESE)    
Max Wind Speed 21 mph    
Max Gust Speed 26 mph    
Visibility 10 miles    
Events      
Averages and records for this station are not official NWS values.
T = Trace of Precipitation, MM = Missing Value Source: NWS Daily Summary

Daily Weather History Graph

Daily Weather History Graph

Search for Another Location

Airport or City:

Trip Planner

Search our weather history database for the weather conditions in past years. The results will help you decide how hot, cold, wet, or windy it might be!

Date:

Astronomy

May. 26, 2013 Rise Set
Actual Time 5:34 AM CDT 8:47 PM CDT
Civil Twilight 4:59 AM CDT 9:23 PM CDT
Nautical Twilight 4:13 AM CDT 10:09 PM CDT
Astronomical Twilight 3:17 AM CDT 11:06 PM CDT
Moon 10:34 PM CDT (5/26) 7:05 AM CDT (5/26)
Length of Visible Light 16h 24m
Length of Day
15h 12m
Waning Gibbous, 96% of the Moon is Illuminated
May 26
Waning Gibbous
May 31
Last Quarter
Jun 8
New
Jun 16
First Quarter
Jun 23
Full

Hourly Weather History & Observations

Time (CDT) Temp. Dew Point Humidity Pressure Visibility Wind Dir Wind Speed Gust Speed Precip Events Conditions
12:53 AM 55.0 °F 41.0 °F 59% 30.21 in 10.0 mi ESE 11.5 mph 17.3 mph N/A   Overcast
1:53 AM 55.0 °F 41.0 °F 59% 30.19 in 10.0 mi ESE 11.5 mph - N/A   Overcast
2:53 AM 53.1 °F 39.9 °F 61% 30.19 in 10.0 mi SE 12.7 mph - N/A   Clear
3:53 AM 53.1 °F 41.0 °F 64% 30.18 in 10.0 mi ESE 10.4 mph - N/A   Partly Cloudy
4:53 AM 53.1 °F 41.0 °F 64% 30.20 in 10.0 mi ESE 9.2 mph - N/A   Overcast
5:53 AM 53.1 °F 41.0 °F 64% 30.21 in 10.0 mi ESE 9.2 mph - N/A   Overcast
6:53 AM 53.1 °F 39.0 °F 59% 30.19 in 10.0 mi East 11.5 mph - N/A   Overcast
7:53 AM 54.0 °F 37.9 °F 55% 30.20 in 10.0 mi East 10.4 mph - N/A   Overcast
8:53 AM 55.0 °F 39.0 °F 55% 30.19 in 10.0 mi East 10.4 mph 18.4 mph N/A   Overcast
9:53 AM 55.9 °F 39.0 °F 53% 30.16 in 10.0 mi ESE 13.8 mph - N/A   Overcast
10:53 AM 55.9 °F 36.0 °F 47% 30.18 in 10.0 mi ESE 17.3 mph 21.9 mph N/A   Overcast
11:53 AM 55.0 °F 37.0 °F 51% 30.19 in 10.0 mi SE 13.8 mph - N/A   Overcast
12:28 PM 55.4 °F 37.4 °F 51% 30.19 in 10.0 mi ESE 12.7 mph 19.6 mph N/A   Overcast
12:53 PM 55.0 °F 37.0 °F 51% 30.19 in 10.0 mi ESE 17.3 mph 26.5 mph N/A   Overcast
1:53 PM 54.0 °F 39.9 °F 59% 30.18 in 10.0 mi ESE 12.7 mph 23.0 mph N/A   Overcast
2:53 PM 55.0 °F 45.0 °F 69% 30.15 in 10.0 mi ESE 20.7 mph 26.5 mph N/A   Overcast
3:53 PM 55.0 °F 45.0 °F 69% 30.12 in 10.0 mi ESE 18.4 mph 26.5 mph N/A   Overcast
4:53 PM 57.0 °F 46.0 °F 67% 30.11 in 10.0 mi ESE 11.5 mph - N/A   Overcast
5:53 PM 57.0 °F 46.9 °F 69% 30.10 in 10.0 mi East 15.0 mph 23.0 mph N/A   Overcast
6:53 PM 57.9 °F 46.9 °F 67% 30.12 in 10.0 mi ESE 12.7 mph - N/A   Overcast
7:53 PM 57.9 °F 46.9 °F 67% 30.12 in 10.0 mi ESE 12.7 mph - N/A   Overcast
8:53 PM 57.9 °F 46.9 °F 67% 30.12 in 10.0 mi ESE 10.4 mph 18.4 mph N/A   Overcast
9:16 PM 57.2 °F 46.4 °F 67% 30.10 in 10.0 mi ESE 15.0 mph 20.7 mph N/A   Overcast
9:53 PM 57.9 °F 46.0 °F 65% 30.11 in 10.0 mi East 9.2 mph - N/A   Overcast
10:35 PM 57.2 °F 46.4 °F 67% 30.08 in 10.0 mi East 10.4 mph - N/A   Overcast
10:53 PM 57.9 °F 46.9 °F 67% 30.09 in 10.0 mi East 11.5 mph - N/A   Overcast
11:53 PM 57.9 °F 46.9 °F 67% 30.03 in 10.0 mi ESE 13.8 mph 21.9 mph N/A   Overcast